Вернуться в каталог

STARLINK-32820

АктивенСвязьVLEO
NORAD 63041·PAYLOAD·🇺🇸 United States

Запущен Feb 18, 2025 с Cape Canaveral Space Force Station

Loading…

Ближайшие Пролёты (ближайшие 24 часа)

TLE

СвежийSource: CelesTrak SupGP

Эпоха: Sep 14, 2026, 20:35 UTC

1 63041C 25034N   26257.85812500 -.00031812  00000+0 -10231-2 0  2571
2 63041  53.1586  99.3028 0001430  87.6924 195.8385 15.31712891    17

Отслеживайте STARLINK-32820 в реальном времени с AllMySat

Download on the App Store